Regional Weather Roundup
Issued by NWS New Orleans/Baton Rouge, LA

Home | Current Version | Previous Version | Text Only | Print | Product List | Glossary On
Versions: 1 2 3 4 5 6 7 8 9 10 11 12 13 14 15 16 17 18 19 20 21 22 23 24 25 26
000
ASUS44 KLIX 211014
RWRLIX
NEW ORLEANS REGIONAL WEATHER ROUNDUP
NATIONAL WEATHER SERVICE NEW ORLEANS LA
500 AM CDT FRI JUL 21 2017

NOTE: "FAIR" INDICATES FEW OR NO CLOUDS BELOW 12,000 FEET WITH NO
      SIGNIFICANT WEATHER AND/OR OBSTRUCTIONS TO VISIBILITY.
      SKY/WX - SKY CONDITION AND SIGNIFICANT WEATHER.
      TMP - AIR TEMPERATURE.     DP    - DEWPOINT TEMPERATURE.
      RH  - RELATIVE HUMIDITY.   PRES  - PRESSURE.
      HI  - HEAT INDEX.          WCI   - WIND CHILL INDEX.

*  THESE STATIONS ARE NOT NWS OR FAA STATIONS AND ARE NOT UNDER
   NWS QUALITY CONTROL.

LAZ038-040-048-061>063-065>067-069-211100-
SOUTHEAST LOUISIANA

CITY           SKY/WX    TMP DP  RH WIND       PRES   REMARKS
N.O. INTL ARPT CLOUDY    79  76  90 NW3       29.99S
N.O. LAKEFRONT CLEAR     85  79  82 NW12      30.00R HX  98
N.O. DOWNTOWN*   N/A     83  74  74 CALM        N/A
RESERVE*         N/A     78  75  91 CALM      30.00S FOG
SLIDELL        CLEAR     79  75  87 CALM      30.00R
BATON ROUGE    CLEAR     77  75  93 CALM      30.00F
BOOTHVILLE     NOT AVBL
BELLE CHASSE   NOT AVBL
BOGALUSA*        N/A     79  74  84 CALM      30.01R
GALLIANO*      SUNNY     76  72  87 CALM      30.00R
NEW ROADS*       N/A     76  74  95 CALM      30.01F
GONZALES*        N/A     75  75  98 CALM      29.99S
HAMMOND*       PTCLDY    77  72  83 CALM      30.00S
HOUMA*         NOT AVBL
PORT FOURCHON* MOSUNNY   84  75  74 W5        30.00R

$$

MSZ070-080>082-211100-
SOUTHERN MISSISSIPPI

CITY           SKY/WX    TMP DP  RH WIND       PRES   REMARKS
MCCOMB         CLOUDY    78  73  84 CALM      30.01F
GULFPORT       CLOUDY    80  79  96 SW3       30.00R
BILOXI         CLOUDY    81  76  85 CALM      29.99R
PASCAGOULA     CLEAR     78  75  90 W3        29.99R

$$

COASTAL OBSERVATIONS
LAKE AND NEARSHORE STATIONS

STATION/POSITION TIME  TEMP    WIND        PRES    WAVE
                       AIR SEA DIR/SP/G            HT/PER
                 (UTC) (F)     (DEG/KT/KT) (MB)    (FT/S)
PASCAGOULA       0948   80     290/  5/  6 1015.2
WAVELAND YACHT   0948   81 91  290/  5/  6 1016.0
GRAND ISLE       0948   84 88  320/  5/  8 1016.0
SOUTHWEST PASS   0948   84     260/  9/ 10   N/A
NEW CANAL        0948   84 89  280/  4/  7 1015.6
SHELL BEACH      0948   82 89  270/  5/  6 1015.9

OFFSHORE STATIONS

STATION/POSITION TIME  TEMP    WIND        PRES    WAVE
                       AIR SEA DIR/SP/G            HT/PER
                 (UTC) (F)     (DEG/KT/KT) (MB)    (FT/S)
64 S DAUPHIN ISL 0950   84 85  260/  6/  6 1015.8    1

$$





USA.gov is the U.S. government's official web portal to all federal, state and local government web resources and services.